Hourly Data Report for May 16, 2020

STE-ANNE-DE-BELLEVUE 1
QUEBEC
Current Station Operator: ECCC - MSC

45°25'38.000" N
73°55'45.000" W
39.00 m
702FHL8
71377
WVQ

Download Data

Hourly Data (May 2020)
Hourly Data Report for May 16, 2020
TIME
LST
Temp Definition
°C
Dew Point Definition
°C
Rel Hum Definition
%
Precip. Amount Definition
mm

Wind Dir Definition
10's deg

Wind Spd Definition
km/h
Visibility Definition
km
Stn Press Definition
kPa
Hmdx Definition


Wind Chill Definition


Weather Definition


00:00 10.6 9.7 94 0.0 28 11   100.69     LegendNANA
01:00 10.8 9.9 94 0.0 28 10   100.73     LegendNANA
02:00 10.8 9.6 92 0.0 30 11   100.77     LegendNANA
03:00 10.7 9.1 90 0.0 27 10   100.88     LegendNANA
04:00 10.4 8.7 89 0.0 29 11   100.98     LegendNANA
05:00 10.3 8.6 89 0.0 28 13   101.11     LegendNANA
06:00 10.4 8.5 88 0.0 29 13   101.25     LegendNANA
07:00 12.1 8.9 81 0.0 30 14   101.33     LegendNANA
08:00 13.4 9.4 77 0.0 33 14   101.39     LegendNANA
09:00 13.1 7.9 71 0.0 33 10   101.48     LegendNANA
10:00 12.5 7.8 73 0.0 28 17   101.54     LegendNANA
11:00 14.3 8.4 68 0.0 28 11   101.56     LegendNANA
12:00 15.6 8.8 64 0.0 31 13   101.59     LegendNANA
13:00 15.5 7.9 61 0.0 26 10   101.63     LegendNANA
14:00 15.4 6.7 56 0.0 28 10   101.64     LegendNANA
15:00 16.4 7.4 55 0.0 26 9   101.61     LegendNANA
16:00 15.8 6.6 54 0.0 26 10   101.65     LegendNANA
17:00 15.8 7.5 58 0.0 26 7   101.67     LegendNANA
18:00 15.2 7.6 61 0.0 24 9   101.72     LegendNANA
19:00 14.5 7.3 62 0.0 24 10   101.77     LegendNANA
20:00 14.0 7.4 65 0.0 25 9   101.83     LegendNANA
21:00 13.8 7.8 67 0.0 26 11   101.85     LegendNANA
22:00 13.5 8.1 70 0.0 26 10   101.90     LegendNANA
23:00 13.2 8.2 72 0.0 26 10   101.90     LegendNANA

Notes on Data Quality.

Legend

  • E = Estimated
  • M = Missing
  • NA = Not Available*
  • [empty] = Indicates an unobserved value
Date modified: